| time (UTC) | temp F | wind direction | speed MPH | gust MPH | rain 1hr in | rain 24hr in | rain mn in | humidity % | barometer mb |
| 20260504234350 | 52 | 167 | 3.0 | 11.0 | 0.00 | 0.00 | 0.00 | 44 | 1005.6 |
| 20260504233846 | 52 | 284 | 7.0 | 11.0 | 0.00 | 0.00 | 0.00 | 44 | 1005.7 |
| 20260504233341 | 53 | 287 | 5.0 | 8.0 | 0.00 | 0.00 | 0.00 | 44 | 1005.3 |
| 20260504232839 | 53 | 219 | 9.0 | 11.0 | 0.00 | 0.00 | 0.00 | 44 | 1005.4 |
| 20260504232336 | 53 | 241 | 9.0 | 16.0 | 0.00 | 0.00 | 0.00 | 44 | 1005.2 |
| 20260504231832 | 53 | 275 | 9.0 | 15.0 | 0.00 | 0.00 | 0.00 | 44 | 1005.3 |
| 20260504231329 | 53 | 229 | 8.0 | 13.0 | 0.00 | 0.00 | 0.00 | 45 | 1005.2 |
| 20260504230825 | 53 | 199 | 9.0 | 17.0 | 0.00 | 0.00 | 0.00 | 45 | 1005.2 |
| 20260504230323 | 53 | 222 | 9.0 | 13.0 | 0.00 | 0.00 | 0.00 | 45 | 1005.2 |
| 20260504225822 | 53 | 233 | 6.0 | 15.0 | 0.00 | 0.00 | 0.00 | 45 | 1005.0 |
| 20260504225317 | 53 | 241 | 3.0 | 10.0 | 0.00 | 0.00 | 0.00 | 46 | 1005.0 |
| 20260504224815 | 54 | 118 | 3.0 | 9.0 | 0.00 | 0.00 | 0.00 | 46 | 1004.7 |
| 20260504224312 | 54 | 216 | 12.0 | 17.0 | 0.00 | 0.00 | 0.00 | 45 | 1004.8 |
| 20260504223809 | 55 | 140 | 3.0 | 15.0 | 0.00 | 0.00 | 0.00 | 45 | 1004.6 |
| 20260504223304 | 55 | 207 | 5.0 | 16.0 | 0.00 | 0.00 | 0.00 | 44 | 1004.4 |
| 20260504222801 | 55 | 229 | 9.0 | 14.0 | 0.00 | 0.00 | 0.00 | 44 | 1004.4 |
| 20260504222258 | 55 | 223 | 11.0 | 13.0 | 0.00 | 0.00 | 0.00 | 44 | 1004.4 |
| 20260504221756 | 55 | 302 | 5.0 | 11.0 | 0.00 | 0.00 | 0.00 | 44 | 1004.1 |
| 20260504221253 | 56 | 182 | 7.0 | 15.0 | 0.00 | 0.00 | 0.00 | 43 | 1004.1 |
| 20260504220749 | 56 | 245 | 2.0 | 9.0 | 0.00 | 0.00 | 0.00 | 43 | 1004.0 |
| 20260504220246 | 56 | 225 | 5.0 | 17.0 | 0.00 | 0.00 | 0.00 | 43 | 1003.7 |
| 20260504215744 | 56 | 207 | 6.0 | 10.0 | 0.00 | 0.00 | 0.00 | 43 | 1003.8 |
| 20260504215240 | 56 | 260 | 5.0 | 11.0 | 0.00 | 0.00 | 0.00 | 44 | 1003.9 |
| 20260504214736 | 56 | 279 | 5.0 | 14.0 | 0.00 | 0.00 | 0.00 | 44 | 1003.6 |
| 20260504214233 | 56 | 281 | 6.0 | 17.0 | 0.00 | 0.00 | 0.00 | 44 | 1003.7 |
| 20260504213729 | 56 | 270 | 5.0 | 11.0 | 0.00 | 0.00 | 0.00 | 44 | 1003.5 |
| 20260504213225 | 57 | 230 | 4.0 | 16.0 | 0.00 | 0.00 | 0.00 | 42 | 1003.3 |
| 20260504212722 | 58 | 262 | 12.0 | 15.0 | 0.00 | 0.00 | 0.00 | 39 | 1003.3 |
| 20260504212214 | 59 | 220 | 11.0 | 14.0 | 0.00 | 0.00 | 0.00 | 41 | 1003.1 |
| 20260504211711 | 59 | 237 | 7.0 | 9.0 | 0.00 | 0.00 | 0.00 | 40 | 1003.1 |
| 20260504211207 | 57 | 207 | 9.0 | 24.0 | 0.00 | 0.00 | 0.00 | 42 | 1003.1 |
| 20260504210705 | 58 | 158 | 8.0 | 16.0 | 0.00 | 0.00 | 0.00 | 41 | 1003.2 |
| 20260504210202 | 58 | 232 | 8.0 | 17.0 | 0.00 | 0.00 | 0.00 | 42 | 1003.3 |
| 20260504205659 | 58 | 245 | 5.0 | 10.0 | 0.00 | 0.00 | 0.00 | 43 | 1003.1 |
| 20260504205156 | 60 | 257 | 7.0 | 14.0 | 0.00 | 0.00 | 0.00 | 41 | 1003.0 |
| 20260504204654 | 57 | 131 | 4.0 | 9.0 | 0.00 | 0.00 | 0.00 | 43 | 1003.1 |
| 20260504204153 | 59 | 188 | 13.0 | 17.0 | 0.00 | 0.00 | 0.00 | 41 | 1003.2 |
| 20260504203651 | 59 | 237 | 5.0 | 17.0 | 0.00 | 0.00 | 0.00 | 40 | 1003.0 |
| 20260504203148 | 60 | 242 | 7.0 | 16.0 | 0.00 | 0.00 | 0.00 | 42 | 1003.0 |
| 20260504202643 | 60 | 235 | 8.0 | 16.0 | 0.00 | 0.00 | 0.00 | 42 | 1002.8 |
| 20260504202140 | 59 | 202 | 8.0 | 21.0 | 0.00 | 0.00 | 0.00 | 44 | 1002.8 |
| 20260504201637 | 59 | 125 | 2.0 | 15.0 | 0.00 | 0.00 | 0.00 | 44 | 1002.8 |
| 20260504201135 | 60 | 229 | 7.0 | 14.0 | 0.00 | 0.00 | 0.00 | 44 | 1002.8 |
| 20260504200632 | 60 | 215 | 4.0 | 16.0 | 0.00 | 0.00 | 0.00 | 43 | 1002.6 |
| 20260504200128 | 60 | 154 | 7.0 | 13.0 | 0.00 | 0.00 | 0.00 | 44 | 1002.5 |
| 20260504195624 | 59 | 176 | 3.0 | 17.0 | 0.00 | 0.00 | 0.00 | 44 | 1002.6 |
| 20260504195121 | 60 | 236 | 9.0 | 15.0 | 0.00 | 0.00 | 0.00 | 44 | 1002.7 |
| 20260504194618 | 60 | 296 | 7.0 | 17.0 | 0.00 | 0.00 | 0.00 | 44 | 1002.4 |
| 20260504194113 | 60 | 200 | 6.0 | 16.0 | 0.00 | 0.00 | 0.00 | 44 | 1002.5 |
| 20260504193609 | 61 | 247 | 5.0 | 15.0 | 0.00 | 0.00 | 0.00 | 43 | 1002.4 |
| 20260504193108 | 60 | 234 | 11.0 | 17.0 | 0.00 | 0.00 | 0.00 | 44 | 1002.3 |
| 20260504192606 | 61 | 229 | 8.0 | 17.0 | 0.00 | 0.00 | 0.00 | 44 | 1002.2 |
| 20260504192104 | 61 | 257 | 7.0 | 13.0 | 0.00 | 0.00 | 0.00 | 44 | 1002.5 |
| 20260504191602 | 60 | 243 | 9.0 | 18.0 | 0.00 | 0.00 | 0.00 | 43 | 1002.2 |
| 20260504191058 | 61 | 226 | 10.0 | 13.0 | 0.00 | 0.00 | 0.00 | 42 | 1002.0 |
| 20260504190554 | 60 | 216 | 11.0 | 16.0 | 0.00 | 0.00 | 0.00 | 42 | 1001.9 |
| 20260504190050 | 60 | 249 | 6.0 | 15.0 | 0.00 | 0.00 | 0.00 | 40 | 1002.0 |
| 20260504185548 | 60 | 215 | 6.0 | 11.0 | 0.00 | 0.00 | 0.00 | 40 | 1002.0 |
| 20260504185044 | 61 | 193 | 3.0 | 11.0 | 0.00 | 0.00 | 0.00 | 40 | 1001.6 |
| 20260504184539 | 62 | 191 | 1.0 | 15.0 | 0.00 | 0.00 | 0.00 | 39 | 1001.7 |
| 20260504184035 | 61 | 210 | 6.0 | 14.0 | 0.00 | 0.00 | 0.00 | 40 | 1001.2 |
| 20260504183532 | 61 | 228 | 5.0 | 16.0 | 0.00 | 0.00 | 0.00 | 40 | 1001.6 |
| 20260504183030 | 61 | 182 | 10.0 | 18.0 | 0.00 | 0.00 | 0.00 | 39 | 1001.7 |
| 20260504182527 | 61 | 175 | 3.0 | 8.0 | 0.00 | 0.00 | 0.00 | 40 | 1001.5 |
| 20260504182024 | 62 | 238 | 5.0 | 15.0 | 0.00 | 0.00 | 0.00 | 39 | 1001.4 |
| 20260504181521 | 62 | 235 | 5.0 | 11.0 | 0.00 | 0.00 | 0.00 | 42 | 1001.2 |
| 20260504181020 | 62 | 243 | 6.0 | 13.0 | 0.00 | 0.00 | 0.00 | 41 | 1001.2 |
| 20260504180518 | 61 | 160 | 7.0 | 13.0 | 0.00 | 0.00 | 0.00 | 42 | 1001.2 |
| 20260504180017 | 62 | 116 | 5.0 | 15.0 | 0.00 | 0.00 | 0.00 | 42 | 1001.1 |
| 20260504175513 | 62 | 227 | 12.0 | 17.0 | 0.00 | 0.00 | 0.00 | 42 | 1001.1 |
| 20260504175010 | 61 | 151 | 7.0 | 15.0 | 0.00 | 0.00 | 0.00 | 43 | 1001.1 |
| 20260504174508 | 61 | 255 | 9.0 | 15.0 | 0.00 | 0.00 | 0.00 | 44 | 1001.1 |
| 20260504174005 | 61 | 237 | 4.0 | 11.0 | 0.00 | 0.00 | 0.00 | 44 | 1001.1 |
| 20260504173502 | 61 | 353 | 7.0 | 9.0 | 0.00 | 0.00 | 0.00 | 44 | 1001.1 |
| 20260504172959 | 60 | 214 | 5.0 | 16.0 | 0.00 | 0.00 | 0.00 | 45 | 1001.1 |
| 20260504172455 | 61 | 179 | 8.0 | 16.0 | 0.00 | 0.00 | 0.00 | 44 | 1000.9 |
| 20260504171952 | 61 | 262 | 7.0 | 22.0 | 0.00 | 0.00 | 0.00 | 44 | 1001.0 |
| 20260504171449 | 61 | 243 | 2.0 | 13.0 | 0.00 | 0.00 | 0.00 | 44 | 1000.9 |
| 20260504170946 | 61 | 160 | 8.0 | 16.0 | 0.00 | 0.00 | 0.00 | 43 | 1000.8 |
| 20260504170442 | 61 | 238 | 7.0 | 16.0 | 0.00 | 0.00 | 0.00 | 44 | 1000.9 |
| 20260504160401 | 61 | 236 | 9.0 | 18.0 | 0.00 | 0.00 | 0.00 | 43 | 1000.6 |
| 20260504150825 | 60 | 234 | 6.0 | 13.0 | 0.00 | 0.00 | 0.00 | 43 | 1000.2 |
| 20260504150322 | 59 | 173 | 10.0 | 14.0 | 0.00 | 0.00 | 0.00 | 43 | 1000.5 |
| 20260504141252 | 60 | 250 | 7.0 | 14.0 | 0.00 | 0.00 | 0.00 | 46 | 1000.1 |
| 20260504140749 | 60 | 214 | 10.0 | 14.0 | 0.00 | 0.00 | 0.00 | 47 | 1000.2 |
| 20260504140244 | 60 | 252 | 6.0 | 16.0 | 0.00 | 0.00 | 0.00 | 49 | 1000.0 |
| 20260504130713 | 60 | 214 | 4.0 | 16.0 | 0.00 | 0.00 | 0.00 | 50 | 999.1 |
| 20260504130209 | 60 | 234 | 6.0 | 10.0 | 0.00 | 0.00 | 0.00 | 50 | 999.2 |
| 20260504120133 | 60 | 201 | 11.0 | 17.0 | 0.00 | 0.00 | 0.00 | 47 | 998.6 |
| 20260504110600 | 59 | 152 | 3.0 | 7.0 | 0.00 | 0.00 | 0.00 | 46 | 998.1 |
| 20260504100522 | 56 | 160 | 2.0 | 2.0 | 0.00 | 0.00 | 0.00 | 51 | 999.0 |
| 20260504081916 | 54 | 92 | 0.0 | 3.0 | 0.00 | 0.00 | 0.00 | 51 | 1000.7 |
| 20260504081412 | 53 | 103 | 1.0 | 2.0 | 0.00 | 0.00 | 0.00 | 52 | 1000.7 |
| 20260504080908 | 54 | 73 | 1.0 | 2.0 | 0.00 | 0.00 | 0.00 | 52 | 1000.9 |
| 20260504080405 | 54 | 106 | 0.0 | 3.0 | 0.00 | 0.00 | 0.00 | 51 | 1001.0 |
| 20260504070333 | 56 | 118 | 2.0 | 5.0 | 0.00 | 0.00 | 0.00 | 49 | 1002.2 |
| 20260504050721 | 57 | 147 | 1.0 | 2.0 | 0.00 | 0.00 | 0.00 | 44 | 1004.2 |
| 20260504050218 | 57 | 110 | 0.0 | 2.0 | 0.00 | 0.00 | 0.00 | 44 | 1004.4 |
| 20260504045715 | 58 | 162 | 2.0 | 5.0 | 0.00 | 0.00 | 0.00 | 43 | 1004.4 |
| 20260504045215 | 58 | 125 | 2.0 | 5.0 | 0.00 | 0.00 | 0.00 | 43 | 1004.5 |
| 20260504044714 | 58 | 121 | 0.0 | 1.0 | 0.00 | 0.00 | 0.00 | 44 | 1004.5 |
| 20260504044211 | 58 | 162 | 1.0 | 2.0 | 0.00 | 0.00 | 0.00 | 43 | 1004.7 |
| 20260504043708 | 57 | 130 | 1.0 | 2.0 | 0.00 | 0.00 | 0.00 | 43 | 1004.9 |
| 20260504043204 | 57 | 125 | 0.0 | 2.0 | 0.00 | 0.00 | 0.00 | 44 | 1004.7 |
| 20260504042702 | 57 | 139 | 0.0 | 1.0 | 0.00 | 0.00 | 0.00 | 44 | 1004.7 |
| 20260504042158 | 57 | 122 | 1.0 | 3.0 | 0.00 | 0.00 | 0.00 | 44 | 1004.9 |
| 20260504041654 | 57 | 207 | 0.0 | 1.0 | 0.00 | 0.00 | 0.00 | 44 | 1005.2 |
| 20260504041150 | 58 | 167 | 0.0 | 1.0 | 0.00 | 0.00 | 0.00 | 43 | 1005.2 |
| 20260504040647 | 58 | 236 | 0.0 | 1.0 | 0.00 | 0.00 | 0.00 | 42 | 1005.2 |
| 20260504040144 | 58 | 159 | 4.0 | 6.0 | 0.00 | 0.00 | 0.00 | 44 | 1005.5 |
| 20260504035641 | 57 | 188 | 0.0 | 1.0 | 0.00 | 0.00 | 0.00 | 42 | 1005.7 |
| 20260504035138 | 57 | 181 | 0.0 | 0.0 | 0.00 | 0.00 | 0.00 | 43 | 1005.7 |
| 20260504034635 | 58 | 205 | 0.0 | 1.0 | 0.00 | 0.00 | 0.00 | 42 | 1005.9 |
| 20260504034132 | 57 | 165 | 0.0 | 1.0 | 0.00 | 0.00 | 0.00 | 43 | 1005.9 |
| 20260504033630 | 57 | 214 | 0.0 | 0.0 | 0.00 | 0.00 | 0.00 | 43 | 1006.0 |
| 20260504033127 | 57 | 244 | 0.0 | 1.0 | 0.00 | 0.00 | 0.00 | 42 | 1006.3 |
| 20260504032624 | 57 | 270 | 0.0 | 1.0 | 0.00 | 0.00 | 0.00 | 42 | 1006.2 |
| 20260504032121 | 57 | 213 | 0.0 | 0.0 | 0.00 | 0.00 | 0.00 | 42 | 1006.2 |
| 20260504031618 | 57 | 275 | 0.0 | 0.0 | 0.00 | 0.00 | 0.00 | 42 | 1006.4 |
| 20260504031114 | 57 | 275 | 0.0 | 0.0 | 0.00 | 0.00 | 0.00 | 42 | 1006.3 |
| 20260504030611 | 58 | 275 | 0.0 | 0.0 | 0.00 | 0.00 | 0.00 | 42 | 1006.4 |
| 20260504030108 | 58 | 275 | 0.0 | 0.0 | 0.00 | 0.00 | 0.00 | 41 | 1006.4 |
| 20260504025605 | 58 | 275 | 0.0 | 1.0 | 0.00 | 0.00 | 0.00 | 40 | 1006.4 |
| 20260504025101 | 58 | 262 | 0.0 | 1.0 | 0.00 | 0.00 | 0.00 | 41 | 1006.4 |
| 20260504024559 | 58 | 225 | 0.0 | 0.0 | 0.00 | 0.00 | 0.00 | 41 | 1006.4 |
| 20260504024055 | 58 | 188 | 0.0 | 1.0 | 0.00 | 0.00 | 0.00 | 40 | 1006.7 |
| 20260504023552 | 59 | 214 | 0.0 | 0.0 | 0.00 | 0.00 | 0.00 | 40 | 1006.6 |
| 20260504023048 | 60 | 204 | 0.0 | 1.0 | 0.00 | 0.00 | 0.00 | 39 | 1006.4 |
| 20260504022544 | 60 | 224 | 0.0 | 2.0 | 0.00 | 0.00 | 0.00 | 39 | 1006.6 |
| 20260504022040 | 60 | 141 | 0.0 | 0.0 | 0.00 | 0.00 | 0.00 | 38 | 1006.4 |
| 20260504021538 | 60 | 200 | 0.0 | 0.0 | 0.00 | 0.00 | 0.00 | 39 | 1006.4 |
| 20260504021035 | 60 | 194 | 0.0 | 0.0 | 0.00 | 0.00 | 0.00 | 39 | 1006.5 |
| 20260504020532 | 60 | 165 | 0.0 | 0.0 | 0.00 | 0.00 | 0.00 | 40 | 1006.4 |
| 20260504020028 | 61 | 210 | 0.0 | 0.0 | 0.00 | 0.00 | 0.00 | 39 | 1006.7 |
| 20260504015524 | 62 | 204 | 0.0 | 0.0 | 0.00 | 0.00 | 0.00 | 39 | 1006.6 |
| 20260504015020 | 63 | 185 | 0.0 | 1.0 | 0.00 | 0.00 | 0.00 | 37 | 1006.6 |
| 20260504014517 | 63 | 177 | 1.0 | 3.0 | 0.00 | 0.00 | 0.00 | 35 | 1006.6 |
| 20260504014014 | 64 | 179 | 2.0 | 3.0 | 0.00 | 0.00 | 0.00 | 34 | 1006.5 |
| 20260504013512 | 64 | 192 | 2.0 | 3.0 | 0.00 | 0.00 | 0.00 | 34 | 1006.6 |
| 20260504013009 | 64 | 222 | 3.0 | 5.0 | 0.00 | 0.00 | 0.00 | 34 | 1006.7 |
| 20260504012506 | 64 | 196 | 1.0 | 5.0 | 0.00 | 0.00 | 0.00 | 34 | 1006.6 |
| 20260504012004 | 65 | 219 | 1.0 | 5.0 | 0.00 | 0.00 | 0.00 | 34 | 1006.8 |
| 20260504011500 | 65 | 212 | 5.0 | 6.0 | 0.00 | 0.00 | 0.00 | 33 | 1006.5 |
| 20260504010955 | 65 | 215 | 2.0 | 6.0 | 0.00 | 0.00 | 0.00 | 33 | 1006.6 |
| 20260504010452 | 66 | 232 | 1.0 | 2.0 | 0.00 | 0.00 | 0.00 | 34 | 1006.7 |
| 20260504005948 | 66 | 182 | 1.0 | 5.0 | 0.00 | 0.00 | 0.00 | 33 | 1006.6 |
| 20260504005445 | 66 | 190 | 2.0 | 5.0 | 0.00 | 0.00 | 0.00 | 32 | 1006.7 |
| 20260504004943 | 67 | 183 | 2.0 | 5.0 | 0.00 | 0.00 | 0.00 | 31 | 1006.6 |
| 20260504004440 | 67 | 199 | 3.0 | 6.0 | 0.00 | 0.00 | 0.00 | 31 | 1006.7 |
| 20260504003937 | 66 | 217 | 3.0 | 7.0 | 0.00 | 0.00 | 0.00 | 32 | 1006.8 |
| 20260504003433 | 67 | 176 | 1.0 | 6.0 | 0.00 | 0.00 | 0.00 | 32 | 1006.7 |
| 20260504002930 | 68 | 216 | 2.0 | 3.0 | 0.00 | 0.00 | 0.00 | 31 | 1006.7 |
| 20260504002427 | 67 | 215 | 0.0 | 3.0 | 0.00 | 0.00 | 0.00 | 31 | 1006.8 |
| 20260504001924 | 67 | 205 | 2.0 | 6.0 | 0.00 | 0.00 | 0.00 | 30 | 1006.8 |
| 20260504001422 | 67 | 241 | 3.0 | 8.0 | 0.00 | 0.00 | 0.00 | 30 | 1006.7 |
| 20260504000918 | 68 | 224 | 2.0 | 6.0 | 0.00 | 0.00 | 0.00 | 29 | 1007.0 |
| 20260504000416 | 67 | 205 | 3.0 | 6.0 | 0.00 | 0.00 | 0.00 | 29 | 1007.1 |
| 20260503235913 | 68 | 204 | 8.0 | 9.0 | 0.00 | 0.00 | 0.00 | 28 | 1007.0 |
| 20260503235410 | 69 | 190 | 4.0 | 8.0 | 0.00 | 0.00 | 0.00 | 28 | 1007.1 |
| 20260503234908 | 69 | 161 | 2.0 | 10.0 | 0.00 | 0.00 | 0.00 | 27 | 1007.0 |